Погода в Танджунг-Пинанге

Индонезия     0°54′52″N   104°29′42″E
темп.,
°C
ветер,
м/с
пор.,
м/с
влажн.,
%
обл.,
%
осадки,
мм/ч
давл.,
гПа
погр.,
м
2 марта, вт
вт201:00+25ссв248848 0.0 1011167
04:00+25ссв368943 0.0 1009271
07:00+26с358149 0.0 1011548
10:00+30ссв556051 0.0 1012937
13:00+31ссв665435 0.0 1011934
16:00+30ссв676419 0.0 1007793
19:00+26ссв488019 0.0 1009587
22:00+26ссв488445 0.0 1011593
3 марта, ср
ср301:00+25ссв368650 0.0 1011364
04:00+25св268992 0.0 1009274
07:00+26ссв248496 0.0 1011382
10:00+31ссв446148 0.0 10131158
13:00+31ссв555652 0.1 10111133
16:00+30ссв566233 0.0 1007892
19:00+27ссв487818 0.0 1010712
22:00+27ссв37830 0.0 1012533
4 марта, чт
чт401:00+26ссв258640 0.0 1011317
04:00+25ссв248799 0.1 1010204
07:00+26с248383 0.3 1012213
10:00+31ссв335717 1.3 10131131
13:00+32св445548 1.7 10111068
16:00+30св445971 0.7 1008862
19:00+27св367662 0.7 1009538
22:00+27ссв368034 0.0 1011471
5 марта, пт
пт501:00+26ссв368441 0.0 1011384
04:00+26ссв258714 0.0 1009250
07:00+27ссв358118 0.1 1011447
10:00+30ссв346583 0.0 1012868
13:00+32ссв445591 0.0 10101093
16:00+30св5663100 0.0 1008799
19:00+27св4779100 0.0 1010616
22:00+27ссв4782100 0.0 1011608
6 марта, сб
сб601:00+27св4782100 0.0 1010626
04:00+26ссв3784100 0.0 1009466
07:00+27св3682100 0.1 1011608
10:00+31ссв566436 0.1 10121023
13:00+31ссв566255 0.6 1010958
16:00+30св576839 0.7 1008932
19:00+27ссв478129 0.8 1009732
22:00+27ссв37837 0.2 1011551